Location: Góry Lasochowskie
(50.8055°N, 20.1972°E)
Time: 11:58:17
(UTC+00:00)

Daily predictions for brighter satellites

Satellite Brightness Start Highest point End
(mag) Time Altitude Azimuth Time Altitude Azimuth Time Altitude Azimuth
BREEZE-M DEB (TANK) 3.7 19:07:49 10° SW 19:10:48 51° SSE 19:20:13 10° ENE
NOSS 2-1 (C) 3.5 19:16:15 10° NW 19:19:57 90° NE 19:25:01 10° SE
MOS 1 Rocket 4.3 19:15:55 10° SE 19:20:52 43° ENE 19:25:57 10° N
Cosmos 1943 3.7 19:21:27 10° SW 19:27:06 68° WNW 19:32:46 10° NNE
Meteor 1-10 Rocket 4.2 19:23:25 10° S 19:29:05 84° E 19:34:42 10° NNE
Cosmos 1536 3.0 19:25:46 10° NNW 19:29:41 71° W 19:33:36 10° S
Cosmos 2279 Rocket 4.2 19:23:35 10° NNW 19:29:47 75° W 19:35:57 10° S
MetOp-B 4.4 19:24:32 10° S 19:29:53 76° WSW 19:35:17 10° NNW
Nadezhda 4 Rocket 4.3 19:26:56 10° SSE 19:32:54 52° E 19:38:59 10° NNE
Meteor 2-10 4.1 19:28:32 10° NNW 19:34:03 85° E 19:39:19 10° SSE
Cosmos 1340 2.4 19:32:03 10° N 19:35:27 70° ENE 19:38:49 10° SSE
FALCON 9 R/B 4.4 19:33:18 10° SW 19:37:27 19° S 19:45:30 10° SE
Meteor 1-11 Rocket 4.0 19:31:52 10° NNW 19:37:34 73° W 19:43:22 10° S
Spot 2 Rocket 3.6 19:32:58 10° SSE 19:37:57 69° ENE 19:43:00 10° N
Okean-O 3.8 19:34:42 10° SSW 19:38:51 40° W 19:43:01 10° NNW
USA 245 2.1 19:37:01 10° SSE 19:39:21 86° ENE 19:42:04 10° NNW
Cosmos 1500 Rocket 3.6 19:35:04 10° NNW 19:39:24 82° W 19:43:41 10° S
Landsat 4 3.5 19:35:56 10° SSE 19:39:24 68° ENE 19:42:52 10° N
Cosmos 1697 Rocket 3.8 19:38:33 10° NNW 19:43:41 34° NE 19:48:47 10° ESE
SPOT 5 3.3 19:39:41 10° S 19:44:02 53° W 19:48:17 10° NNW
Cosmos 1626 3.5 19:45:10 11° SE 19:47:11 18° E 19:49:26 10° NE
Sich 1 3.1 19:42:54 10° NNW 19:47:18 81° W 19:51:40 10° S
NOSS 3-3 (C) 4.4 19:43:38 10° S 19:48:30 35° ESE 19:54:07 10° NE
Cosmos 1726 3.9 19:47:58 10° NW 19:50:29 22° W 19:52:58 10° SW
Cosmos 1805 Rocket 3.7 19:46:37 10° NNW 19:51:02 76° W 19:55:26 10° S
Cosmos 1980 Rocket 3.9 19:48:51 10° NNW 19:53:31 25° NE 19:58:10 10° E
Cosmos 1633 Rocket 3.9 19:50:06 10° N 19:54:14 37° ENE 19:57:53 13° SE
Cosmos 1733 3.3 19:52:27 10° NNW 19:55:56 63° W 19:59:23 10° S
Cosmos 1666 Rocket 3.9 19:55:59 10° N 20:00:11 49° ENE 20:03:46 14° SSE
SL-8 R/B 3.7 19:55:42 10° W 20:00:25 64° S 20:05:08 10° ESE
USA 234 4.0 19:54:18 10° ENE 20:00:42 58° NNW 20:07:05 10° W
Ariane Rocket 3.1 19:56:11 10° SSE 20:01:16 82° WSW 20:06:23 10° NNW
Cosmos 44 Rocket 3.8 19:57:46 10° NW 20:02:40 54° NE 20:07:10 11° ESE
Lacrosse 5 rocket 2.7 19:59:22 10° WNW 20:03:24 39° NNE 20:07:19 10° E
Meteor 2-4 Rocket 4.0 20:04:51 10° S 20:10:38 57° E 20:16:26 10° NNE
Cosmos 2026 Rocket 4.2 20:05:14 10° SSE 20:11:18 54° E 20:17:18 10° NNE
Cosmos 1674 4.5 20:11:20 12° ESE 20:12:47 15° E 20:14:49 10° NE
ERS-1 Rocket 3.8 20:09:00 10° S 20:13:50 48° W 20:18:44 10° NNW
SPOT 3 Rocket 3.8 20:10:36 10° S 20:15:40 69° WSW 20:20:49 10° NNW
USA 59 Rocket 1.1 20:12:15 10° WNW 20:15:58 38° SW 20:20:16 13° S
Cosmos 614 Rocket 4.0 20:12:15 10° SSW 20:17:28 88° ESE 20:22:43 10° NNE
Lacrosse 4 Rocket 1.9 20:14:27 10° NW 20:18:26 51° WSW 20:21:37 15° SSE
Cosmos 1340 Rocket 3.5 20:14:48 10° SSW 20:18:44 55° WNW 20:22:39 10° N
Spot 1 4.1 20:14:46 10° NNE 20:18:53 60° ESE 20:22:51 12° S
Cosmos 1818 3.6 20:13:35 10° SSW 20:18:59 66° SE 20:24:25 10° NE
Meteor 1-27 Rocket 4.2 20:15:54 10° SSW 20:21:21 61° WNW 20:26:55 10° N
IRIDIUM 106 4.3 20:23:12 10° N 20:28:28 80° E 20:32:49 15° S
H-2A R/B 4.2 20:25:54 11° ESE 20:29:00 24° ENE 20:32:27 10° N
Terra 2.9 20:24:43 10° SSW 20:29:08 39° W 20:33:34 10° NNW
Cosmos 1805 3.8 20:25:58 10° NNW 20:29:35 51° W 20:32:42 13° S
Cosmos 1833 Rocket 3.2 20:26:09 13° S 20:30:46 41° ESE 20:36:00 10° NE
Cosmos 1766 3.4 20:28:57 10° N 20:32:39 55° ENE 20:34:59 21° SSE
Cosmos 1656 4.0 20:27:25 10° NW 20:32:47 59° WSW 20:37:08 16° S
Cosmos 1269 Rocket 4.0 20:33:08 10° SSW 20:38:23 72° ESE 20:43:39 10° NNE
Cosmos 2082 Rocket 3.8 20:42:10 14° SE 20:44:17 17° E 20:47:54 10° ENE
Cosmos 1553 Rocket 4.1 20:40:05 10° N 20:46:09 66° ENE 20:50:36 19° SSE
Cosmos 1470 3.4 20:43:33 10° N 20:47:03 38° ENE 20:48:57 22° SE
Landsat 5 3.4 20:43:49 10° N 20:47:37 74° WNW 20:51:05 12° SSW
Cosmos 1151 Rocket 4.2 20:44:46 10° SW 20:48:52 41° WNW 20:52:58 10° N
Cosmos 1975 3.8 20:47:04 10° NNW 20:50:47 41° W 20:53:47 14° SSW
Cosmos 2360 4.3 20:45:16 10° NNW 20:50:59 70° WSW 20:55:00 20° SSE
GEOS 3 Rocket 3.9 20:52:15 10° NE 20:57:15 46° SE 21:01:25 14° SSW
Meteor 1-18 Rocket 4.5 20:52:54 10° SSW 20:58:47 79° WNW 21:04:43 10° N
USA 281 3.5 20:54:10 18° S 20:59:12 61° WSW 21:05:46 10° NNW
Cosmos 1908 3.9 21:00:05 10° N 21:03:29 39° ENE 21:05:04 25° SE
NOSS 3-3 (A) 3.9 20:59:36 10° SW 21:05:10 82° NW 21:11:47 10° NE
ARIANE 5 R/B 2.6 21:02:57 24° SSE 21:05:28 76° ENE 21:09:48 10° NNW
Cosmos 2285 Rocket 4.3 21:03:59 20° S 21:08:11 50° ESE 21:14:17 10° NNE
Cosmos 1092 Rocket 4.4 21:01:57 10° SSW 21:08:11 66° WNW 21:14:32 10° N
Cosmos 1328 Rocket 4.0 21:05:06 13° SSW 21:08:47 58° WNW 21:13:03 10° N
H-2A R/B 4.4 21:10:39 10° ENE 21:11:26 10° E 21:12:11 10° E
CZ-2C R/B 3.6 21:08:35 10° NNE 21:13:04 68° ESE 21:15:38 24° S
BREEZE-M DEB (TANK) 3.5 21:15:39 31° SSE 21:16:10 33° SE 21:21:17 10° ENE
Cosmos 1140 Rocket 3.5 21:14:22 20° S 21:18:01 69° ESE 21:23:13 10° NNE
Cosmos 1515 Rocket 3.4 21:17:02 24° S 21:19:38 89° ESE 21:23:59 10° N
Cosmos 1626 3.4 21:17:57 12° SW 21:20:30 30° WNW 21:23:24 10° N
NOSS 3-4 (A) 3.8 21:13:51 10° NW 21:20:37 77° SW 21:26:14 20° SSE
NOSS 3-4 (C) 3.8 21:13:57 10° NW 21:20:43 78° SW 21:26:21 20° SSE
Cosmos 2266 Rocket 4.3 21:17:38 22° SSE 21:21:27 53° E 21:27:34 10° NNE
Spot 4 4.1 21:19:17 24° SE 21:22:03 58° ENE 21:26:45 10° N
Cosmos 1707 2.5 21:26:10 34° S 21:27:37 70° E 21:31:16 10° NNE
Cosmos 1697 Rocket 3.1 21:22:26 10° NW 21:27:54 53° WSW 21:31:08 24° S
Cosmos 2322 Rocket 4.2 21:23:42 10° NNW 21:28:09 23° NE 21:32:34 10° E
OPS 6432 4.4 21:25:33 10° NW 21:28:43 66° NE 21:29:58 32° ESE
PSLV R/B 3.8 21:24:46 10° NNE 21:28:51 76° ESE 21:30:48 29° S
Cosmos 1400 Rocket 4.3 21:27:50 21° ESE 21:29:01 24° E 21:32:13 10° NE
Cosmos 1470 Rocket 4.4 21:24:51 10° NNW 21:29:03 42° W 21:31:41 20° SSW
BREEZE-M DEB (TANK) 2.2 21:22:54 10° WSW 21:29:58 81° SSE 21:32:29 10° ENE
Cosmos 1869 Rocket 3.6 21:26:25 10° N 21:30:48 68° ENE 21:32:56 29° SSE
Meteor 1-15 Rocket 4.4 21:25:29 10° N 21:31:04 61° ENE 21:34:24 24° SSE
Cosmos 1300 4.1 21:28:06 10° NNE 21:31:08 25° ENE 21:32:38 19° ESE
Cosmos 1441 Rocket 3.0 21:32:51 10° N 21:36:26 70° ENE 21:37:42 37° SSE
Orbus 7S? 2.9 21:33:21 10° SW 21:38:01 76° SSE 21:40:52 10° ENE
Cosmos 1980 Rocket 2.2 21:32:30 10° NNW 21:38:15 85° WSW 21:41:38 26° SSE
NOSS 3-3 (C) 4.5 21:33:29 10° WSW 21:39:02 60° NW 21:45:44 10° NE
Lacrosse 5 rocket 1.2 21:37:51 10° WNW 21:42:05 84° SSW 21:44:16 27° SE
SL-8 R/B 4.4 21:38:08 10° W 21:42:26 35° SSW 21:43:39 30° S
USA 234 4.0 21:36:54 10° E 21:43:15 55° N 21:49:36 10° WNW
Cosmos 2333 Rocket 4.3 21:39:00 10° NNW 21:43:26 22° NE 21:47:53 10° E
Cosmos 2228 Rocket 4.2 21:41:50 24° SE 21:43:36 33° E 21:47:39 10° NNE
Cosmos 44 Rocket 4.4 21:39:39 10° WNW 21:43:55 30° WSW 21:45:49 22° SSW
Cosmos 1655 Rocket 4.3 21:41:21 24° SSE 21:45:05 56° E 21:51:20 10° NNE
Cosmos 1842 3.7 21:44:35 25° SW 21:46:29 53° WNW 21:50:06 10° N
Cosmos 1674 3.3 21:44:53 23° SW 21:46:43 43° WNW 21:50:05 10° N
Cosmos 540 Rocket 3.6 21:42:32 10° NNW 21:47:43 69° ENE 21:50:44 25° SE
Cosmos 1763 Rocket 3.5 21:44:39 10° NNW 21:50:00 88° WSW 21:52:51 28° SSE
Cosmos 468 Rocket 4.2 21:47:19 10° NNW 21:52:38 70° ENE 21:55:43 25° SE
Cosmos 1933 Rocket 4.3 21:49:50 10° NNW 21:54:00 44° W 21:56:09 25° SSW
GP-B 3.6 21:54:51 10° NNE 21:59:08 47° E 22:00:59 29° SE
Cosmos 407 Rocket 3.5 21:56:19 21° SSW 21:59:51 83° WNW 22:05:07 10° NNE
SL-14 R/B 3.9 22:01:00 33° SE 22:02:07 42° E 22:05:44 10° NNE
H-2A R/B 3.1 22:01:54 28° SSW 22:03:41 46° W 22:07:51 10° NNW
Aureole 3 4.3 22:04:37 22° ESE 22:05:03 23° E 22:07:43 10° NE
Cosmos 2369 3.8 22:00:06 10° NNW 22:05:49 70° WSW 22:08:52 28° SSE
Cosmos 1862 Rocket 4.3 22:05:04 28° SE 22:06:40 39° E 22:10:43 10° NNE
Cosmos 1607 4.3 22:00:50 10° SW 22:07:17 68° NW 22:13:47 10° NE
Cosmos 1455 4.3 22:05:18 10° NNE 22:07:37 17° ENE 22:09:28 12° ESE
Cosmos 1954 Rocket 4.3 22:05:17 29° SSE 22:07:41 52° ESE 22:12:51 10° NNE
Cosmos 1190 Rocket 4.0 22:10:54 28° SSW 22:13:43 76° ESE 22:19:03 10° NNE
ALOS 2 2.7 22:12:16 33° S 22:14:06 67° WSW 22:18:30 10° NNW
Cosmos 1833 Rocket 3.8 22:09:23 10° WSW 22:14:42 42° NW 22:20:03 10° NNE
Cosmos 2219 Rocket 4.4 22:11:50 10° NNW 22:16:13 22° NE 22:20:36 10° E
ATLAS 2AS CENTAUR R/B 4.0 22:10:41 10° NW 22:17:13 40° NNE 22:23:30 10° E
SL-16 R/B 2.7 22:12:37 10° NNW 22:18:14 56° NE 22:22:42 16° SE
COSMOS 2406 3.3 22:15:19 27° S 22:18:28 67° ESE 22:24:11 10° NNE
Cosmos 1758 3.1 22:16:54 10° NNW 22:20:45 82° W 22:22:01 41° S
PSLV R/B 3.8 22:17:20 10° NNE 22:21:46 58° E 22:23:26 34° SSE
Meteor 1-12 Rocket 4.4 22:17:32 10° NNW 22:23:28 72° W 22:26:45 28° S
Meteor 1-23 Rocket 4.2 22:20:52 28° S 22:23:58 89° ESE 22:29:40 10° NNE
Cosmos 2082 Rocket 2.2 22:23:56 24° SSW 22:27:34 90° E 22:33:20 10° NNE
Meteor 2-20 4.4 22:21:39 10° N 22:27:51 88° W 22:31:23 28° S
Cosmos 2251 Rocket 4.0 22:24:49 17° SW 22:28:44 56° WNW 22:33:58 10° NNE
CZ-2C R/B 4.2 22:26:20 26° SSE 22:29:14 69° E 22:51:31 10° N
Cosmos 1707 Rocket 3.5 22:28:05 35° S 22:29:55 79° E 22:34:24 10° NNE
Cosmos 2360 Rocket 3.4 22:25:01 10° NNW 22:30:22 39° NE 22:35:40 10° ESE
Meteor 2-10 Rocket 4.0 22:30:13 10° NNW 22:35:57 61° W 22:38:54 28° SSW
Okean 2 4.2 22:38:45 28° SE 22:40:06 37° E 22:43:48 10° NNE
Okean 3 3.4 22:41:11 38° S 22:42:39 69° E 22:46:46 10° NNE
Meteor 1-4 Rocket 3.4 22:42:38 26° ESE 22:42:55 27° E 22:45:30 10° NE
H-2A R/B 2.0 22:43:27 10° NNE 22:47:54 79° ESE 22:49:42 35° S
USA 267 3.9 22:42:30 10° ENE 22:48:23 35° SE 22:51:04 26° S
Nadezhda 1 Rocket 4.5 22:43:21 10° N 22:49:40 57° ENE 22:54:10 19° SSE
Cosmos 1315 Rocket 3.8 22:49:16 27° SE 22:50:36 35° E 22:54:14 10° NNE
Cosmos 2237 4.2 22:47:22 10° NNW 22:53:08 80° WSW 22:56:34 25° SSE
Cosmos 1346 Rocket 3.1 22:54:01 10° NNW 22:57:48 51° W 22:58:57 37° SSW
Cosmos 1908 Rocket 3.7 22:53:44 10° N 22:58:10 69° ENE 23:00:16 30° SSE
Cosmos 1733 Rocket 3.8 22:57:30 10° NNW 23:01:34 40° W 23:03:12 28° SW
SL-4 R/B 3.5 23:02:20 21° SE 23:02:20 21° SE 23:05:23 10° E
Helios 1A Rocket 3.9 23:01:29 18° SE 23:03:51 37° ENE 23:07:26 10° N
Cosmos 2278 3.8 22:58:25 10° NW 23:04:02 60° WSW 23:07:01 28° S
Cosmos 1400 Rocket 4.0 23:02:59 22° WSW 23:04:53 35° WNW 23:08:32 10° N
Cosmos 1244 Rocket 4.5 23:02:01 27° SSW 23:05:37 83° W 23:11:55 10° N
Cosmos 1300 3.9 23:02:49 10° NNW 23:05:51 26° W 23:06:40 24° WSW
Cosmos 1850 Rocket 4.2 23:10:20 29° S 23:12:55 60° ESE 23:18:06 10° NNE
Cosmos 2322 Rocket 2.2 23:07:19 10° NNW 23:13:01 86° ENE 23:17:16 19° SSE
Cosmos 841 Rocket 3.7 23:08:29 10° NNW 23:13:37 55° WSW 23:16:05 29° S
Cosmos 1408 4.3 23:15:08 15° ESE 23:16:04 17° E 23:18:07 10° NE
Resurs 1-4 Rocket 4.3 23:13:39 10° NE 23:16:34 15° E 23:19:29 10° ESE
Cosmos 1242 Rocket 3.3 23:19:14 26° ESE 23:19:46 27° E 23:22:16 10° NE
Lacrosse 5 rocket 3.1 23:17:03 10° W 23:19:04 17° WSW 23:19:04 17° WSW
Okean 1-7 3.0 23:18:10 33° SSW 23:20:02 78° W 23:24:24 10° N
Cosmos 1980 Rocket 4.0 23:18:01 10° WNW 23:21:23 16° W 23:23:22 14° WSW
Cosmos 2228 Rocket 4.4 23:19:15 19° WSW 23:21:45 32° WNW 23:25:49 10° N
Cosmos 1741 Rocket 4.1 23:19:46 29° S 23:22:28 68° ESE 23:27:43 10° NNE
CZ-2D R/B 4.3 23:20:59 10° NE 23:24:27 17° E 23:27:54 10° SE
USA 234 3.3 23:19:25 10° ESE 23:26:00 86° NNE 23:32:37 10° WNW
SL-27 R/B 3.2 23:27:58 27° ESE 23:28:17 28° ESE 23:30:44 10° NE
Cosmos 2333 Rocket 2.3 23:22:50 10° NNW 23:28:37 82° ENE 23:33:45 13° SSE
Cosmos 1238 4.1 23:26:32 10° N 23:29:54 88° W 23:30:45 45° S
Cosmos 1953 2.6 23:27:02 10° NNW 23:30:49 50° W 23:32:08 34° SSW
Timation 1 Rocket 4.4 23:28:39 26° SSW 23:32:06 70° ESE 23:38:03 10° NE
Genesis I 2.8 23:33:03 39° SSW 23:34:15 81° SE 23:37:50 10° NE
Cosmos 1709 Rocket 4.4 23:30:45 21° SSE 23:35:03 61° E 23:41:20 10° NNE
BREEZE-M DEB (TANK) 4.1 23:34:39 30° SSE 23:35:27 34° SE 23:41:22 10° ENE
IDEFIX/ARIANE 42P 4.1 23:34:27 10° NE 23:38:57 28° E 23:42:54 12° SSE
Cosmos 1703 Rocket 3.6 23:38:29 30° SSW 23:40:39 73° W 23:45:08 10° N
SL-19 R/B 4.1 23:36:43 10° NNE 23:40:42 83° ESE 23:42:10 35° S
Cosmos 1455 2.6 23:39:01 10° NNW 23:42:17 40° W 23:43:13 32° SW
Cosmos 1300 Rocket 3.5 23:40:13 10° N 23:44:34 87° ENE 23:47:00 25° S
ADEOS II 4.3 23:42:26 10° NE 23:45:45 17° E 23:49:03 10° SE
SJ 16-02 1.6 23:45:36 28° S 23:47:43 58° ESE 23:51:58 10° NNE
RESURS DK-1 2.3 23:44:47 10° NW 23:48:50 68° WSW 23:51:06 25° SSE
